Sandpoint, ID

9:06 PM PST on November 20, 2017 (GMT -0800)
Sandpoint

Weather History for KSZT - March, 2014

Change the Weather History Date:

Friday, March 28, 2014

  Actual Average Record
Temperature  
Mean Temperature 38 °F -  
Max Temperature 44 °F 49 °F 68 °F (1941)
Min Temperature 32 °F 29 °F 9 °F (1975)
Degree Days  
Heating Degree Days 27    
Moisture  
Dew Point 38 °F    
Average Humidity 95    
Maximum Humidity 100    
Minimum Humidity 71    
Precipitation  
Precipitation 0.00 in - - ()
Sea Level Pressure  
Sea Level Pressure 29.85 in    
Wind  
Wind Speed 1 mph (SSW)    
Max Wind Speed 6 mph    
Max Gust Speed -    
Visibility 9 miles    
Events Rain    
Averages and records for this station are not official NWS values.
T = Trace of Precipitation, MM = Missing Value Source: NWS Daily Summary

Daily Weather History Graph

Daily Weather History Graph

Search for Another Location

Airport or City:

Trip Planner

Search our weather history database for the weather conditions in past years. The results will help you decide how hot, cold, wet, or windy it might be!

Date:

Astronomy

Mar. 28, 2014 Rise Set
Actual Time 6:32 AM PDT 7:11 PM PDT
Civil Twilight 6:01 AM PDT 7:42 PM PDT
Nautical Twilight 5:23 AM PDT 8:20 PM PDT
Astronomical Twilight 4:44 AM PDT 8:59 PM PDT
Moon 5:16 AM PDT (3/28) 5:05 PM PDT (3/28)
Length of Visible Light 13h 41m
Length of Day
12h 38m
Waning Crescent, 5% of the Moon is Illuminated
Mar 28
Waning Crescent
Mar 30
New
Apr 7
First Quarter
Apr 15
Full
Apr 22
Last Quarter

Hourly Weather History & Observations

Time (PDT) Temp. Windchill Dew Point Humidity Pressure Visibility Wind Dir Wind Speed Gust Speed Precip Events Conditions
12:15 AM 32.0 °F - 32.0 °F 100% 29.84 in 5.0 mi Calm Calm - N/A   Overcast
12:35 AM 32.0 °F - 32.0 °F 100% 29.85 in 5.0 mi Calm Calm - N/A   Overcast
12:55 AM 33.8 °F - 33.8 °F 100% 29.85 in 10.0 mi Calm Calm - N/A   Overcast
1:15 AM 33.8 °F - 33.8 °F 100% 29.86 in 7.0 mi Calm Calm - N/A   Light Drizzle
1:35 AM 33.8 °F - 33.8 °F 100% 29.86 in 10.0 mi Calm Calm - N/A Rain Light Rain
1:55 AM 33.8 °F - 33.8 °F 100% 29.87 in 7.0 mi Calm Calm - N/A   Light Drizzle
2:15 AM 33.8 °F - 33.8 °F 100% 29.87 in 2.0 mi Calm Calm - N/A Rain Rain
2:35 AM 33.8 °F - 33.8 °F 100% 29.88 in 2.5 mi Calm Calm - N/A Rain Light Rain
2:55 AM 35.6 °F 32.8 °F 35.6 °F 100% 29.87 in 7.0 mi SSE 3.5 mph - N/A Rain Light Rain
3:15 AM 35.6 °F 31.7 °F 35.6 °F 100% 29.87 in 10.0 mi South 4.6 mph - N/A   Overcast
3:35 AM 35.6 °F - 35.6 °F 100% 29.88 in 7.0 mi Calm Calm - N/A   Overcast
3:55 AM 35.6 °F 32.8 °F 35.6 °F 100% 29.88 in 7.0 mi South 3.5 mph - N/A   Overcast
4:15 AM 35.6 °F 31.7 °F 35.6 °F 100% 29.89 in 10.0 mi South 4.6 mph - N/A   Overcast
4:35 AM 35.6 °F - 35.6 °F 100% 29.89 in 10.0 mi Calm Calm - N/A   Overcast
4:55 AM 35.6 °F - 35.6 °F 100% 29.90 in 7.0 mi Calm Calm - N/A   Overcast
5:15 AM 35.6 °F - 35.6 °F 100% 29.90 in 4.0 mi Calm Calm - N/A   Overcast
5:35 AM 35.6 °F - 35.6 °F 100% 29.90 in 7.0 mi Calm Calm - N/A   Overcast
5:55 AM 35.6 °F - 35.6 °F 100% 29.91 in 3.0 mi Calm Calm - N/A   Overcast
6:15 AM 35.6 °F 32.8 °F 35.6 °F 100% 29.91 in 10.0 mi South 3.5 mph - N/A   Overcast
6:35 AM 35.6 °F 32.8 °F 35.6 °F 100% 29.91 in 10.0 mi South 3.5 mph - N/A   Overcast
6:55 AM 35.6 °F 31.7 °F 35.6 °F 100% 29.91 in 10.0 mi South 4.6 mph - N/A   Overcast
7:15 AM 35.6 °F - 35.6 °F 100% 29.90 in 10.0 mi Calm Calm - N/A   Overcast
7:35 AM 37.4 °F 34.9 °F 37.4 °F 100% 29.91 in 10.0 mi South 3.5 mph - N/A   Overcast
7:55 AM 37.4 °F - 37.4 °F 100% 29.92 in 10.0 mi Calm Calm - N/A   Overcast
8:15 AM 37.4 °F 34.9 °F 37.4 °F 100% 29.92 in 10.0 mi SSW 3.5 mph - N/A   Overcast
8:35 AM 37.4 °F 33.8 °F 37.4 °F 100% 29.92 in 10.0 mi WSW 4.6 mph - N/A   Overcast
8:55 AM 39.2 °F 35.0 °F 39.2 °F 100% 29.92 in 10.0 mi WSW 5.8 mph - N/A   Overcast
9:15 AM 41.0 °F 39.0 °F 39.2 °F 93% 29.92 in 10.0 mi SW 3.5 mph - N/A   Overcast
9:35 AM 41.0 °F 37.1 °F 37.4 °F 87% 29.92 in 10.0 mi WSW 5.8 mph - N/A   Overcast
9:55 AM 41.0 °F 39.0 °F 37.4 °F 87% 29.92 in 10.0 mi WSW 3.5 mph - N/A   Overcast
10:15 AM 41.0 °F - 37.4 °F 87% 29.92 in 10.0 mi Calm Calm - N/A   Overcast
10:35 AM 42.8 °F - 37.4 °F 81% 29.91 in 10.0 mi Calm Calm - N/A   Overcast
10:55 AM 42.8 °F 40.1 °F 35.6 °F 76% 29.91 in 10.0 mi SSW 4.6 mph - N/A   Overcast
11:15 AM 42.8 °F - 35.6 °F 76% 29.91 in 10.0 mi Calm Calm - N/A   Overcast
11:35 AM 42.8 °F - 35.6 °F 76% 29.90 in 10.0 mi Calm Calm - N/A   Overcast
11:55 AM 42.8 °F - 35.6 °F 76% 29.90 in 10.0 mi Calm Calm - N/A   Drizzle
12:15 PM 42.8 °F - 37.4 °F 81% 29.89 in 10.0 mi Calm Calm - N/A   Overcast
12:35 PM 44.6 °F - 35.6 °F 71% 29.89 in 10.0 mi Calm Calm - N/A   Overcast
12:55 PM 44.6 °F - 35.6 °F 71% 29.88 in 10.0 mi Calm Calm - N/A   Overcast
1:15 PM 44.6 °F 43.1 °F 37.4 °F 76% 29.87 in 10.0 mi NE 3.5 mph - N/A   Overcast
1:35 PM 44.6 °F 43.1 °F 37.4 °F 76% 29.86 in 10.0 mi NE 3.5 mph - N/A   Overcast
1:55 PM 42.8 °F 40.1 °F 37.4 °F 81% 29.85 in 10.0 mi NNE 4.6 mph - N/A Rain Light Rain
2:15 PM 42.8 °F 40.1 °F 39.2 °F 87% 29.84 in 10.0 mi North 4.6 mph - N/A Rain Light Rain
2:35 PM 42.8 °F - 41.0 °F 93% 29.84 in 10.0 mi Calm Calm - N/A Rain Light Rain
2:55 PM 42.8 °F - 42.8 °F 100% 29.84 in 10.0 mi Calm Calm - N/A Rain Light Rain
3:15 PM 42.8 °F 39.3 °F 42.8 °F 100% 29.83 in 7.0 mi West 5.8 mph - N/A Rain Rain
3:35 PM 42.8 °F - 41.0 °F 93% 29.83 in 10.0 mi Calm Calm - N/A   Drizzle
3:55 PM 42.8 °F 41.1 °F 42.8 °F 100% 29.82 in 10.0 mi SSW 3.5 mph - N/A   Drizzle
4:15 PM 42.8 °F 40.1 °F 42.8 °F 100% 29.82 in 10.0 mi SSW 4.6 mph - N/A Rain Rain
4:35 PM 42.8 °F 40.1 °F 42.8 °F 100% 29.82 in 7.0 mi South 4.6 mph - N/A Rain Rain
4:55 PM 42.8 °F 39.3 °F 42.8 °F 100% 29.81 in 10.0 mi South 5.8 mph - N/A Rain Light Rain
5:15 PM 42.8 °F - 42.8 °F 100% 29.81 in 10.0 mi Calm Calm - N/A Rain Rain
5:35 PM 42.8 °F - 42.8 °F 100% 29.81 in 10.0 mi Calm Calm - N/A   Drizzle
5:55 PM 41.0 °F 39.0 °F 41.0 °F 100% 29.81 in 10.0 mi SSW 3.5 mph - N/A Rain Rain
6:15 PM 41.0 °F 39.0 °F 41.0 °F 100% 29.80 in 10.0 mi SW 3.5 mph - N/A Rain Light Rain
6:35 PM 41.0 °F 39.0 °F 41.0 °F 100% 29.80 in 10.0 mi WSW 3.5 mph - N/A Rain Light Rain
6:55 PM 41.0 °F 39.0 °F 41.0 °F 100% 29.80 in 10.0 mi SW 3.5 mph - N/A Rain Light Rain
7:15 PM 41.0 °F 39.0 °F 41.0 °F 100% 29.80 in 10.0 mi SSW 3.5 mph - N/A Rain Light Rain
7:35 PM 41.0 °F 39.0 °F 41.0 °F 100% 29.80 in 10.0 mi SSW 3.5 mph - N/A Rain Light Rain
7:55 PM 41.0 °F 39.0 °F 41.0 °F 100% 29.80 in 7.0 mi SSW 3.5 mph - N/A Rain Light Rain
8:15 PM 41.0 °F 38.0 °F 41.0 °F 100% 29.81 in 7.0 mi SW 4.6 mph - N/A Rain Light Rain
8:35 PM 41.0 °F 39.0 °F 41.0 °F 100% 29.80 in 10.0 mi SW 3.5 mph - N/A   Drizzle
8:55 PM 41.0 °F - 41.0 °F 100% 29.80 in 10.0 mi Calm Calm - N/A Rain Light Rain
9:15 PM 41.0 °F - 41.0 °F 100% 29.80 in 10.0 mi Calm Calm - N/A Rain Rain
9:35 PM 41.0 °F - 41.0 °F 100% 29.79 in 7.0 mi Calm Calm - N/A Rain Rain
9:55 PM 39.2 °F - 39.2 °F 100% 29.79 in 10.0 mi Calm Calm - N/A   Drizzle
10:15 PM 39.2 °F - 39.2 °F 100% 29.78 in 10.0 mi Calm Calm - N/A   Drizzle
10:35 PM 39.2 °F - 39.2 °F 100% 29.78 in 7.0 mi Calm Calm - N/A   Overcast
10:55 PM 39.2 °F - 39.2 °F 100% 29.78 in 5.0 mi Calm Calm - N/A Rain Light Rain
11:15 PM 37.4 °F - 37.4 °F 100% 29.77 in 5.0 mi Calm Calm - N/A Rain Rain
11:35 PM 37.4 °F - 37.4 °F 100% 29.76 in 3.0 mi Calm Calm - N/A Rain Rain
11:55 PM 37.4 °F - 37.4 °F 100% 29.76 in 4.0 mi Calm Calm - N/A Rain Rain